Weather History for Chihuahua, Mexico

Change the Weather History Date:

Monday, October 29, 2012

  Actual Average Record
Temperature  
Mean Temperature 67 °F -  
Max Temperature 81 °F 70 °F 87 °F (1998)
Min Temperature 53 °F 39 °F 35 °F (2011)
Cooling Degree Days 2    
Growing Degree Days 17 (Base 50)    
Moisture  
Dew Point 41 °F    
Average Humidity 38    
Maximum Humidity 76    
Minimum Humidity 18    
Precipitation  
Precipitation 0.00 in - - ()
Sea Level Pressure  
Sea Level Pressure 30.06 in    
Wind  
Wind Speed 3 mph ()    
Max Wind Speed 9 mph    
Max Gust Speed -    
Visibility 7.7 miles    
Events      
Averages and records for this station are not official NWS values.
T = Trace of Precipitation, MM = Missing Value Source: Averaged Metar Reports

Daily Weather History Graph

Daily Weather History Graph

Search for Another Location

Airport:

Trip Planner

Search our weather history database for the weather conditions in past years. The results will help you decide how hot, cold, wet, or windy it might be!

Date:

Astronomy

Oct. 29, 2012 Rise Set
Actual Time 6:14 AM MST 5:20 PM MST
Civil Twilight 5:49 AM MST 5:44 PM MST
Nautical Twilight 5:22 AM MST 6:12 PM MST
Astronomical Twilight 4:54 AM MST 6:40 PM MST
Moon 5:17 PM MST (10/29) 6:04 AM MST (10/29)
Length of Visible Light 11h 54m
Length of Day
11h 06m
Full, 100% of the Moon is Illuminated
Oct 29
Full
Oct 29
Full
Nov 6
Last Quarter
Nov 13
New
Nov 20
First Quarter

Hourly Weather History & Observations

Time (MST) Temp. Dew Point Humidity Pressure Visibility Wind Dir Wind Speed Gust Speed Precip Events Conditions
1:45 AM 56 °F 47 °F 65% 29.92 in 1 mi WNW 2.2 mph - -   Clear
4:50 AM 54 °F 46 °F 67% 29.99 in 1 mi NW 2.2 mph - -  
7:04 AM 51.8 °F 44.6 °F 76% 30.25 in 10.0 mi West 3.5 mph - N/A   Partly Cloudy
7:43 AM 57.2 °F 44.6 °F 63% 30.07 in 10.0 mi Calm Calm - N/A   Clear
7:45 AM 61 °F 49 °F 56% 30.04 in 6 mi ENE 4.5 mph - -  
8:49 AM 64.4 °F 44.6 °F 49% 30.28 in 10.0 mi Calm Calm - N/A   Clear
9:45 AM 69.8 °F 44.6 °F 40% 30.28 in 10.0 mi NNW 3.5 mph - N/A   Clear
10:40 AM 73.4 °F 44.6 °F 36% 30.01 in 10.0 mi NNW 5.8 mph - N/A   Partly Cloudy
10:45 AM 74 °F 51 °F 33% 30.02 in 6 mi ENE 4.5 mph - -   Scattered Clouds
12:43 PM 78.8 °F 44.6 °F 30% 30.18 in 10.0 mi North 9.2 mph - N/A   Scattered Clouds
1:43 PM 80.6 °F 42.8 °F 26% 29.94 in 10.0 mi ENE 6.9 mph - N/A   Scattered Clouds
1:50 PM 80 °F 45 °F 19% 29.88 in 6 mi NNE 6.7 mph - -   Scattered Clouds
2:40 PM 80.6 °F 39.2 °F 23% 30.14 in 10.0 mi East 4.6 mph - N/A   Partly Cloudy
3:40 PM 80.6 °F 37.4 °F 21% 30.14 in 10.0 mi East 6.9 mph - N/A   Partly Cloudy
4:40 PM 78.8 °F 35.6 °F 21% 29.94 in 10.0 mi ENE 4.6 mph - N/A   Partly Cloudy
4:45 PM 78 °F 42 °F 18% 29.81 in 6 mi NNE 6.7 mph - -  
5:40 PM 71.6 °F 33.8 °F 25% 30.16 in 10.0 mi Calm Calm - N/A   Clear
6:40 PM 64.4 °F 32.0 °F 30% 30.17 in 10.0 mi Calm Calm - N/A   Clear
7:40 PM 61 °F 36 °F 28% 29.82 in 1 mi Calm Calm - -  
7:40 PM 62.6 °F 33.8 °F 34% 29.99 in 10.0 mi SSW 4.6 mph - N/A   Clear
8:40 PM 57.2 °F 33.8 °F 41% 30.20 in 10.0 mi South 4.6 mph - N/A   Clear
9:40 PM 55.4 °F 33.8 °F 44% 30.20 in 10.0 mi South 6.9 mph - N/A   Clear
10:35 PM 60 °F 37 °F 31% 29.86 in 1 mi Calm Calm - -